User: anonymous   Login
Location: Hochstatterhof
(48.7256°N, 10.3487°E)
Time: 12:00:44
(UTC+00:00)
Language:

H-2A R/B - Orbit

View from above orbital plane
View from above orbital plane
View from above satellite
View from above satellite

Ground track
Ground track

The orbit data is extracted from the following two-line orbital elements,

1 27601U 02056E   24057.20003388  .00000490  00000-0  18993-3 0  9997
2 27601  98.2196  39.9003 0070648 214.6989 164.8298 14.32666907107731
Epoch (UTC): 26 February 2024 04:48:02
Eccentricity: 0.0070648
inclination: 98.2196°
perigee height: 732 km
apogee height: 833 km
right ascension of ascending node: 39.9003°
argument of perigee: 214.6989°
revolutions per day: 14.32666907
mean anomaly at epoch: 164.8298°
orbit number at epoch: 10773

The dashed part of the orbit path shows where the satellite is in the earth's shadow,  

DLR